Weather in Timofeevka

Russia / Samara Oblast     53°33′47″N   49°23′45″E
temp.,
°C
wind,
m/s
gust,
m/s
humid.,
%
clouds,
%
prec.,
mm/h
press.,
hPa
HPBL,
m
20 june, sun
sun2001:00+16w23885 0.0 102339
04:00+16wsw22880 0.0 102332
07:00+18wnw23800 0.0 1023133
10:00+21wnw34723 0.0 1023353
13:00+23wnw24655 0.0 1023712
16:00+25nnw34570 0.0 1022839
19:00+25nnw24650 0.0 1021342
22:00+21nne11780 0.0 102211
21 june, mon
mon2101:00+19nne11820 0.0 102311
04:00+19e11860 0.0 102311
07:00+21s12790 0.0 1023109
10:00+22sw23840 0.8 1024210
13:00+24sw22721 1.1 1024534
16:00+26sw11580 1.3 1023939
19:00+26ssw11623 0.0 102184
22:00+23sse11660 0.0 102211
22 june, tue
tue2201:00+21ssw11742 0.0 102211
04:00+20sw11770 0.0 102311
07:00+21w11720 0.0 102382
10:00+24w22630 0.0 1023518
13:00+25wsw22607 0.0 1023989
16:00+27sw12510 0.0 10221162
19:00+27sw11587 0.0 1021346
22:00+24sse11646 0.0 102211
23 june, wed
wed2301:00+21ssw11728 0.0 102111
04:00+20nnw007639 0.0 102211
07:00+22nnw12710 0.0 1022110
10:00+25wnw23644 0.0 1021530
13:00+26wnw236037 0.1 10211259
16:00+28nnw34515 0.1 10201327
19:00+27nnw23541 0.0 1019569
22:00+23wnw22665 0.0 101918
24 june, thu
thu2401:00+21wnw228215 0.1 101918
04:00+19nw22830 0.1 101920
07:00+21nnw24771 0.0 1019169
10:00+25nw34661 0.0 1018383
13:00+28nnw34552 0.1 1018954
16:00+28nnw345323 0.1 10181452
19:00+20ne81389100 7.4 1019265
22:00+20w127946 8.7 101813